Wetterdaten: Woche 15.11.10 - 21.11.10 (KW46)
Datum Zeit Temp. Innen Temp. Aussen UV X Diff Temp. Feuchte Inne Feuchte Auss Sonnenschein Luftdruck Regen ab 0,1 Wind Sonnenschein T Regendauer Windben
15.11.2010 00:00 16,3 C 10,7 C 0,0 UV-I 0,0 C 57 % 74 % 0 % 1005,4 hPa 0,0 l/m 9,2 km/h (2 Bft) 0,00 h 0,00 h 9,8 km/h (2 Bft)
15.11.2010 01:00 16,1 C 10,2 C 0,0 UV-I 0,0 C 58 % 78 % 0 % 1006,8 hPa 0,0 l/m 4,4 km/h (1 Bft) 0,00 h 0,00 h 5,4 km/h (1 Bft)
15.11.2010 02:00 16,1 C 9,6 C 0,0 UV-I 0,0 C 59 % 80 % 0 % 1007,9 hPa 0,0 l/m 2,6 km/h (1 Bft) 0,00 h 0,00 h 3,5 km/h (1 Bft)
15.11.2010 03:00 16,1 C 9,0 C 0,0 UV-I 0,0 C 59 % 81 % 0 % 1008,6 hPa 0,0 l/m 1,7 km/h (1 Bft) 0,00 h 0,00 h 2,3 km/h (1 Bft)
15.11.2010 04:00 16,1 C 8,4 C 0,0 UV-I 0,0 C 59 % 83 % 0 % 1009,1 hPa 0,0 l/m 1,4 km/h (1 Bft) 0,00 h 0,00 h 1,6 km/h (1 Bft)
15.11.2010 05:00 16,1 C 7,9 C 0,0 UV-I 0,0 C 59 % 84 % 0 % 1009,7 hPa 0,0 l/m 0,5 km/h (0 Bft) 0,00 h 0,00 h 0,9 km/h (0 Bft)
15.11.2010 06:00 16,0 C 7,6 C 0,0 UV-I 0,0 C 58 % 85 % 0 % 1010,1 hPa 0,0 l/m 0,2 km/h (0 Bft) 0,00 h 0,00 h 0,5 km/h (0 Bft)
15.11.2010 07:00 16,0 C 7,1 C 0,0 UV-I 0,0 C 58 % 86 % 0 % 1010,6 hPa 0,0 l/m 0,1 km/h (0 Bft) 0,00 h 0,00 h 0,0 km/h (0 Bft)
15.11.2010 08:00 16,0 C 6,5 C 0,0 UV-I 0,0 C 58 % 87 % 0 % 1011,2 hPa 0,0 l/m 0,0 km/h (0 Bft) 0,00 h 0,00 h 0,0 km/h (0 Bft)
15.11.2010 09:00 16,0 C 7,0 C 0,0 UV-I 0,7 C 58 % 88 % 19 % 1012,4 hPa 0,0 l/m 0,2 km/h (0 Bft) 0,00 h 0,00 h 0,3 km/h (0 Bft)
15.11.2010 10:00 16,2 C 8,0 C 0,0 UV-I 0,8 C 58 % 86 % 24 % 1013,1 hPa 0,0 l/m 0,4 km/h (0 Bft) 0,00 h 0,00 h 0,9 km/h (0 Bft)
15.11.2010 11:00 16,4 C 8,7 C 0,0 UV-I 0,9 C 58 % 83 % 25 % 1013,8 hPa 0,0 l/m 0,1 km/h (0 Bft) 0,00 h 0,00 h 0,1 km/h (0 Bft)
15.11.2010 12:00 16,6 C 9,4 C 0,0 UV-I 1,7 C 57 % 80 % 50 % 1014,3 hPa 0,0 l/m 0,4 km/h (0 Bft) 0,00 h 0,00 h 0,7 km/h (0 Bft)
15.11.2010 13:00 16,9 C 9,8 C 0,0 UV-I 1,9 C 57 % 78 % 53 % 1014,3 hPa 0,0 l/m 1,0 km/h (0 Bft) 0,03 h 0,00 h 1,2 km/h (1 Bft)
15.11.2010 14:00 16,8 C 9,7 C 0,0 UV-I 0,5 C 57 % 77 % 13 % 1014,6 hPa 0,0 l/m 1,2 km/h (1 Bft) 0,00 h 0,00 h 1,4 km/h (1 Bft)
15.11.2010 15:00 16,7 C 9,5 C 0,0 UV-I 0,0 C 57 % 79 % 0 % 1014,6 hPa 0,0 l/m 0,6 km/h (0 Bft) 0,00 h 0,00 h 0,8 km/h (0 Bft)
15.11.2010 16:00 16,5 C 9,0 C 0,0 UV-I 0,0 C 58 % 82 % 0 % 1015,1 hPa 0,0 l/m 0,0 km/h (0 Bft) 0,00 h 0,00 h 0,0 km/h (0 Bft)
15.11.2010 17:00 16,3 C 8,0 C 0,0 UV-I 0,0 C 58 % 85 % 0 % 1015,5 hPa 0,0 l/m 0,0 km/h (0 Bft) 0,00 h 0,00 h 0,0 km/h (0 Bft)
15.11.2010 18:00 16,2 C 7,2 C 0,0 UV-I 0,0 C 58 % 88 % 0 % 1016,2 hPa 0,0 l/m 0,0 km/h (0 Bft) 0,00 h 0,00 h 0,0 km/h (0 Bft)
15.11.2010 19:00 16,1 C 6,6 C 0,0 UV-I 0,0 C 58 % 90 % 0 % 1016,6 hPa 0,0 l/m 0,0 km/h (0 Bft) 0,00 h 0,00 h 0,0 km/h (0 Bft)
15.11.2010 20:00 16,0 C 6,2 C 0,0 UV-I 0,0 C 58 % 91 % 0 % 1017,1 hPa 0,0 l/m 0,0 km/h (0 Bft) 0,00 h 0,00 h 0,0 km/h (0 Bft)
15.11.2010 21:00 15,9 C 5,8 C 0,0 UV-I 0,0 C 58 % 92 % 0 % 1017,2 hPa 0,0 l/m 0,0 km/h (0 Bft) 0,00 h 0,00 h 0,0 km/h (0 Bft)
15.11.2010 22:00 15,8 C 5,0 C 0,0 UV-I 0,0 C 58 % 92 % 0 % 1017,8 hPa 0,0 l/m 0,0 km/h (0 Bft) 0,00 h 0,00 h 0,0 km/h (0 Bft)
15.11.2010 23:00 15,6 C 4,1 C 0,0 UV-I 0,0 C 57 % 92 % 0 % 1018,4 hPa 0,0 l/m 0,0 km/h (0 Bft) 0,00 h 0,00 h 0,0 km/h (0 Bft)
16.11.2010 00:00 15,5 C 3,4 C 0,0 UV-I 0,0 C 57 % 93 % 0 % 1018,6 hPa 0,0 l/m 0,0 km/h (0 Bft) 0,00 h 0,00 h 0,0 km/h (0 Bft)
16.11.2010 01:00 15,3 C 2,8 C 0,0 UV-I 0,0 C 57 % 93 % 0 % 1018,9 hPa 0,0 l/m 0,0 km/h (0 Bft) 0,00 h 0,27 h 0,0 km/h (0 Bft)
16.11.2010 02:00 15,2 C 2,3 C 0,0 UV-I 0,0 C 56 % 93 % 0 % 1019,1 hPa 0,0 l/m 0,0 km/h (0 Bft) 0,00 h 0,00 h 0,0 km/h (0 Bft)
16.11.2010 03:00 15,2 C 2,0 C 0,0 UV-I 0,0 C 56 % 94 % 0 % 1019,5 hPa 0,0 l/m 0,0 km/h (0 Bft) 0,00 h 0,00 h 0,0 km/h (0 Bft)
16.11.2010 04:00 15,1 C 1,8 C 0,0 UV-I 0,0 C 55 % 94 % 0 % 1019,6 hPa 0,0 l/m 0,0 km/h (0 Bft) 0,00 h 0,00 h 0,0 km/h (0 Bft)
16.11.2010 05:00 15,0 C 1,7 C 0,0 UV-I 0,0 C 55 % 94 % 0 % 1020,3 hPa 0,0 l/m 0,0 km/h (0 Bft) 0,00 h 0,13 h 0,0 km/h (0 Bft)
16.11.2010 06:00 14,9 C 1,5 C 0,0 UV-I 0,0 C 55 % 94 % 0 % 1020,0 hPa 0,0 l/m 0,1 km/h (0 Bft) 0,00 h 0,20 h 0,5 km/h (0 Bft)
16.11.2010 07:00 14,8 C 1,3 C 0,0 UV-I 0,0 C 55 % 94 % 0 % 1020,6 hPa 0,0 l/m 0,3 km/h (0 Bft) 0,00 h 0,07 h 0,4 km/h (0 Bft)
16.11.2010 08:00 14,8 C 1,1 C 0,0 UV-I 0,0 C 55 % 95 % 0 % 1021,4 hPa 0,0 l/m 0,5 km/h (0 Bft) 0,00 h 0,00 h 0,6 km/h (0 Bft)
16.11.2010 09:00 14,8 C 1,2 C 0,0 UV-I 0,1 C 55 % 95 % 2 % 1021,6 hPa 0,0 l/m 0,5 km/h (0 Bft) 0,00 h 0,07 h 0,5 km/h (0 Bft)
16.11.2010 10:00 14,9 C 2,0 C 0,0 UV-I 0,9 C 55 % 95 % 26 % 1022,1 hPa 0,0 l/m 0,2 km/h (0 Bft) 0,00 h 0,00 h 0,4 km/h (0 Bft)
16.11.2010 11:00 15,1 C 3,1 C 0,0 UV-I 1,6 C 55 % 95 % 45 % 1022,6 hPa 0,1 l/m 0,6 km/h (0 Bft) 0,00 h 0,10 h 0,7 km/h (0 Bft)
16.11.2010 12:00 15,2 C 4,1 C 0,0 UV-I 1,7 C 55 % 96 % 49 % 1022,3 hPa 0,0 l/m 0,6 km/h (0 Bft) 0,00 h 0,03 h 0,3 km/h (0 Bft)
16.11.2010 13:00 15,4 C 4,8 C 0,0 UV-I 1,2 C 55 % 96 % 34 % 1022,3 hPa 0,0 l/m 1,8 km/h (1 Bft) 0,00 h 0,00 h 2,4 km/h (1 Bft)
16.11.2010 14:00 15,4 C 4,9 C 0,0 UV-I 0,7 C 56 % 96 % 20 % 1022,0 hPa 0,0 l/m 2,0 km/h (1 Bft) 0,00 h 0,00 h 2,6 km/h (1 Bft)
16.11.2010 15:00 15,3 C 4,8 C 0,0 UV-I 0,2 C 56 % 96 % 6 % 1021,9 hPa 0,0 l/m 4,3 km/h (1 Bft) 0,00 h 0,00 h 5,4 km/h (1 Bft)
16.11.2010 16:00 15,2 C 4,5 C 0,0 UV-I 0,0 C 56 % 96 % 0 % 1021,7 hPa 0,0 l/m 2,4 km/h (1 Bft) 0,00 h 0,00 h 2,5 km/h (1 Bft)
16.11.2010 17:00 15,1 C 4,1 C 0,0 UV-I 0,0 C 56 % 96 % 0 % 1021,7 hPa 0,0 l/m 1,8 km/h (1 Bft) 0,00 h 0,00 h 2,1 km/h (1 Bft)
16.11.2010 18:00 15,0 C 4,2 C 0,0 UV-I 0,0 C 56 % 96 % 0 % 1021,6 hPa 0,0 l/m 0,3 km/h (0 Bft) 0,00 h 0,00 h 0,4 km/h (0 Bft)
16.11.2010 19:00 15,0 C 4,1 C 0,0 UV-I 0,0 C 57 % 96 % 0 % 1021,3 hPa 0,0 l/m 3,0 km/h (1 Bft) 0,00 h 0,00 h 3,2 km/h (1 Bft)
16.11.2010 20:00 14,8 C 3,6 C 0,0 UV-I 0,0 C 56 % 96 % 0 % 1021,2 hPa 0,0 l/m 2,9 km/h (1 Bft) 0,00 h 0,00 h 2,8 km/h (1 Bft)
16.11.2010 21:00 14,9 C 3,5 C 0,0 UV-I 0,0 C 56 % 96 % 0 % 1020,7 hPa 0,0 l/m 2,2 km/h (1 Bft) 0,00 h 0,00 h 3,0 km/h (1 Bft)
16.11.2010 22:00 14,8 C 3,4 C 0,0 UV-I 0,0 C 56 % 96 % 0 % 1020,2 hPa 0,0 l/m 1,3 km/h (1 Bft) 0,00 h 0,03 h 1,7 km/h (1 Bft)
16.11.2010 23:00 14,8 C 3,4 C 0,0 UV-I 0,0 C 56 % 96 % 0 % 1019,6 hPa 0,0 l/m 1,2 km/h (1 Bft) 0,00 h 0,03 h 1,5 km/h (1 Bft)
17.11.2010 00:00 14,8 C 3,5 C 0,0 UV-I 0,0 C 56 % 96 % 0 % 1019,4 hPa 0,0 l/m 0,8 km/h (0 Bft) 0,00 h 0,03 h 1,9 km/h (1 Bft)
17.11.2010 01:00 14,8 C 3,5 C 0,0 UV-I 0,0 C 56 % 96 % 0 % 1018,4 hPa 0,0 l/m 1,1 km/h (1 Bft) 0,00 h 0,03 h 1,9 km/h (1 Bft)
17.11.2010 02:00 14,8 C 3,5 C 0,0 UV-I 0,0 C 57 % 96 % 0 % 1017,6 hPa 0,0 l/m 1,4 km/h (1 Bft) 0,00 h 0,07 h 1,9 km/h (1 Bft)
17.11.2010 03:00 14,8 C 3,7 C 0,0 UV-I 0,0 C 57 % 96 % 0 % 1017,0 hPa 0,0 l/m 1,1 km/h (1 Bft) 0,00 h 0,10 h 1,5 km/h (1 Bft)
17.11.2010 04:00 14,8 C 3,7 C 0,0 UV-I 0,0 C 56 % 96 % 0 % 1016,3 hPa 0,0 l/m 2,2 km/h (1 Bft) 0,00 h 0,03 h 3,2 km/h (1 Bft)
17.11.2010 05:00 14,7 C 3,1 C 0,0 UV-I 0,0 C 56 % 96 % 0 % 1015,8 hPa 0,0 l/m 2,8 km/h (1 Bft) 0,00 h 0,03 h 3,3 km/h (1 Bft)
17.11.2010 06:00 14,6 C 2,5 C 0,0 UV-I 0,0 C 56 % 96 % 0 % 1015,2 hPa 0,1 l/m 0,5 km/h (0 Bft) 0,00 h 0,03 h 0,4 km/h (0 Bft)
17.11.2010 07:00 14,5 C 1,7 C 0,0 UV-I 0,0 C 55 % 96 % 0 % 1014,4 hPa 0,0 l/m 1,2 km/h (1 Bft) 0,00 h 0,07 h 1,3 km/h (1 Bft)
17.11.2010 08:00 14,4 C 1,5 C 0,0 UV-I 0,0 C 55 % 96 % 0 % 1014,3 hPa 0,0 l/m 1,0 km/h (0 Bft) 0,00 h 0,00 h 1,6 km/h (1 Bft)
17.11.2010 09:00 14,4 C 2,3 C 0,0 UV-I 0,1 C 55 % 96 % 3 % 1013,7 hPa 0,0 l/m 0,3 km/h (0 Bft) 0,00 h 0,00 h 0,0 km/h (0 Bft)
17.11.2010 10:00 14,7 C 4,1 C 0,0 UV-I 1,0 C 55 % 97 % 28 % 1013,5 hPa 0,0 l/m 1,8 km/h (1 Bft) 0,00 h 0,00 h 3,5 km/h (1 Bft)
17.11.2010 11:00 14,8 C 4,9 C 0,0 UV-I 0,8 C 55 % 96 % 23 % 1012,8 hPa 0,0 l/m 2,8 km/h (1 Bft) 0,00 h 0,00 h 3,8 km/h (1 Bft)
17.11.2010 12:00 14,9 C 5,5 C 0,0 UV-I 0,8 C 54 % 96 % 23 % 1012,0 hPa 0,0 l/m 3,4 km/h (1 Bft) 0,00 h 0,00 h 3,7 km/h (1 Bft)
17.11.2010 13:00 15,0 C 5,8 C 0,0 UV-I 0,5 C 54 % 95 % 13 % 1011,0 hPa 0,0 l/m 2,3 km/h (1 Bft) 0,00 h 0,00 h 2,7 km/h (1 Bft)
17.11.2010 14:00 15,0 C 5,8 C 0,0 UV-I 0,0 C 53 % 94 % 0 % 1010,1 hPa 0,0 l/m 1,2 km/h (1 Bft) 0,00 h 0,00 h 1,9 km/h (1 Bft)
17.11.2010 15:00 14,8 C 5,7 C 0,0 UV-I 0,0 C 53 % 93 % 0 % 1009,8 hPa 0,0 l/m 1,7 km/h (1 Bft) 0,00 h 0,00 h 2,1 km/h (1 Bft)
17.11.2010 16:00 14,8 C 5,5 C 0,0 UV-I 0,0 C 53 % 93 % 0 % 1009,3 hPa 0,0 l/m 0,3 km/h (0 Bft) 0,00 h 0,00 h 0,7 km/h (0 Bft)
17.11.2010 17:00 14,8 C 5,5 C 0,0 UV-I 0,0 C 53 % 92 % 0 % 1009,0 hPa 0,0 l/m 0,2 km/h (0 Bft) 0,00 h 0,00 h 0,5 km/h (0 Bft)
17.11.2010 18:00 14,8 C 5,4 C 0,0 UV-I 0,0 C 53 % 92 % 0 % 1008,6 hPa 0,0 l/m 0,0 km/h (0 Bft) 0,00 h 0,00 h 0,0 km/h (0 Bft)
17.11.2010 19:00 14,7 C 5,3 C 0,0 UV-I 0,0 C 53 % 92 % 0 % 1008,6 hPa 0,0 l/m 0,1 km/h (0 Bft) 0,00 h 0,00 h 0,9 km/h (0 Bft)
17.11.2010 20:00 14,8 C 5,2 C 0,0 UV-I 0,0 C 53 % 92 % 0 % 1008,2 hPa 0,0 l/m 0,2 km/h (0 Bft) 0,00 h 0,27 h 0,5 km/h (0 Bft)
17.11.2010 21:00 14,8 C 5,3 C 0,0 UV-I 0,0 C 53 % 93 % 0 % 1008,1 hPa 0,0 l/m 1,3 km/h (1 Bft) 0,00 h 0,00 h 3,6 km/h (1 Bft)
17.11.2010 22:00 14,8 C 5,4 C 0,0 UV-I 0,0 C 54 % 93 % 0 % 1008,0 hPa 0,0 l/m 2,2 km/h (1 Bft) 0,00 h 0,00 h 4,2 km/h (1 Bft)
17.11.2010 23:00 14,8 C 5,2 C 0,0 UV-I 0,0 C 54 % 93 % 0 % 1007,7 hPa 0,0 l/m 0,4 km/h (0 Bft) 0,00 h 0,00 h 1,0 km/h (0 Bft)
18.11.2010 00:00 14,8 C 5,1 C 0,0 UV-I 0,0 C 54 % 94 % 0 % 1007,5 hPa 0,0 l/m 0,1 km/h (0 Bft) 0,00 h 0,43 h 0,6 km/h (0 Bft)
18.11.2010 01:00 14,7 C 5,0 C 0,0 UV-I 0,0 C 55 % 95 % 0 % 1007,3 hPa 0,1 l/m 0,3 km/h (0 Bft) 0,00 h 0,50 h 0,8 km/h (0 Bft)
18.11.2010 02:00 14,7 C 5,0 C 0,0 UV-I 0,0 C 55 % 95 % 0 % 1007,1 hPa 0,2 l/m 0,3 km/h (0 Bft) 0,00 h 0,97 h 1,2 km/h (1 Bft)
18.11.2010 03:00 14,6 C 4,9 C 0,0 UV-I 0,0 C 55 % 95 % 0 % 1007,0 hPa 0,0 l/m 0,0 km/h (0 Bft) 0,00 h 0,30 h 0,2 km/h (0 Bft)
18.11.2010 04:00 14,6 C 4,9 C 0,0 UV-I 0,0 C 55 % 95 % 0 % 1006,9 hPa 0,0 l/m 0,2 km/h (0 Bft) 0,00 h 0,03 h 0,4 km/h (0 Bft)
18.11.2010 05:00 14,6 C 4,9 C 0,0 UV-I 0,0 C 56 % 96 % 0 % 1006,7 hPa 0,0 l/m 0,1 km/h (0 Bft) 0,00 h 0,00 h 0,7 km/h (0 Bft)
18.11.2010 06:00 14,7 C 4,9 C 0,0 UV-I 0,0 C 56 % 96 % 0 % 1006,9 hPa 0,0 l/m 0,2 km/h (0 Bft) 0,00 h 0,00 h 0,0 km/h (0 Bft)
18.11.2010 07:00 14,7 C 5,0 C 0,6 UV-I 0,0 C 56 % 96 % 0 % 1006,7 hPa 0,0 l/m 0,3 km/h (0 Bft) 0,00 h 0,00 h 1,0 km/h (0 Bft)
18.11.2010 08:00 14,7 C 5,0 C 3,9 UV-I 0,0 C 56 % 96 % 0 % 1007,2 hPa 0,0 l/m 0,1 km/h (0 Bft) 0,00 h 0,00 h 0,1 km/h (0 Bft)
18.11.2010 09:00 14,7 C 5,2 C 4,7 UV-I 0,0 C 56 % 96 % 0 % 1007,6 hPa 0,0 l/m 0,4 km/h (0 Bft) 0,00 h 0,00 h 0,7 km/h (0 Bft)
18.11.2010 10:00 14,8 C 5,8 C 5,7 UV-I 0,4 C 56 % 96 % 12 % 1007,9 hPa 0,0 l/m 1,4 km/h (1 Bft) 0,00 h 0,00 h 3,7 km/h (1 Bft)
18.11.2010 11:00 15,0 C 7,6 C 3,3 UV-I 5,3 C 55 % 95 % 99 % 1008,2 hPa 0,0 l/m 4,8 km/h (1 Bft) 1,00 h 0,00 h 7,0 km/h (2 Bft)
18.11.2010 12:00 15,3 C 8,8 C 1,3 UV-I 4,6 C 54 % 89 % 90 % 1008,2 hPa 0,0 l/m 4,9 km/h (1 Bft) 0,80 h 0,00 h 7,1 km/h (2 Bft)
18.11.2010 13:00 15,4 C 8,4 C 0,7 UV-I 1,2 C 52 % 87 % 36 % 1008,3 hPa 0,0 l/m 1,2 km/h (1 Bft) 0,00 h 0,00 h 2,4 km/h (1 Bft)
18.11.2010 14:00 15,5 C 8,6 C 0,8 UV-I 0,9 C 51 % 87 % 26 % 1008,4 hPa 0,0 l/m 0,5 km/h (0 Bft) 0,00 h 0,00 h 2,1 km/h (1 Bft)
18.11.2010 15:00 15,4 C 8,4 C 0,3 UV-I 0,1 C 49 % 87 % 3 % 1008,3 hPa 0,0 l/m 0,5 km/h (0 Bft) 0,00 h 0,00 h 1,3 km/h (1 Bft)
18.11.2010 16:00 15,2 C 8,1 C 0,0 UV-I 0,0 C 50 % 88 % 0 % 1008,6 hPa 0,0 l/m 0,2 km/h (0 Bft) 0,00 h 0,00 h 0,6 km/h (0 Bft)
18.11.2010 17:00 15,1 C 7,6 C 0,0 UV-I 0,0 C 51 % 90 % 0 % 1008,8 hPa 0,0 l/m 0,0 km/h (0 Bft) 0,00 h 0,00 h 0,0 km/h (0 Bft)
18.11.2010 18:00 15,0 C 7,2 C 0,0 UV-I 0,0 C 52 % 91 % 0 % 1009,3 hPa 0,0 l/m 0,1 km/h (0 Bft) 0,00 h 0,00 h 0,2 km/h (0 Bft)
18.11.2010 19:00 14,9 C 7,1 C 0,0 UV-I 0,0 C 52 % 91 % 0 % 1010,0 hPa 0,0 l/m 0,0 km/h (0 Bft) 0,00 h 0,00 h 0,0 km/h (0 Bft)
18.11.2010 20:00 14,8 C 7,1 C 0,0 UV-I 0,0 C 52 % 92 % 0 % 1010,3 hPa 0,0 l/m 0,5 km/h (0 Bft) 0,00 h 0,03 h 1,8 km/h (1 Bft)
18.11.2010 21:00 14,8 C 6,8 C 0,0 UV-I 0,0 C 53 % 93 % 0 % 1010,8 hPa 0,1 l/m 0,6 km/h (0 Bft) 0,00 h 0,83 h 1,3 km/h (1 Bft)
18.11.2010 22:00 14,8 C 6,5 C 0,0 UV-I 0,0 C 54 % 94 % 0 % 1011,1 hPa 0,0 l/m 0,1 km/h (0 Bft) 0,00 h 0,23 h 0,8 km/h (0 Bft)
18.11.2010 23:00 14,8 C 6,6 C 0,0 UV-I 0,0 C 55 % 94 % 0 % 1011,4 hPa 0,1 l/m 0,1 km/h (0 Bft) 0,00 h 0,53 h 0,6 km/h (0 Bft)
19.11.2010 00:00 14,8 C 6,4 C 0,0 UV-I 0,0 C 55 % 94 % 0 % 1011,6 hPa 0,2 l/m 0,2 km/h (0 Bft) 0,00 h 0,70 h 0,5 km/h (0 Bft)
19.11.2010 01:00 14,8 C 6,1 C 0,0 UV-I 0,0 C 55 % 95 % 0 % 1011,5 hPa 0,0 l/m 0,1 km/h (0 Bft) 0,00 h 0,00 h 0,3 km/h (0 Bft)
19.11.2010 02:00 14,7 C 5,9 C 0,0 UV-I 0,0 C 55 % 95 % 0 % 1011,7 hPa 0,0 l/m 0,1 km/h (0 Bft) 0,00 h 0,03 h 0,2 km/h (0 Bft)
19.11.2010 03:00 14,6 C 4,7 C 0,0 UV-I 0,0 C 55 % 94 % 0 % 1011,8 hPa 0,0 l/m 0,0 km/h (0 Bft) 0,00 h 0,03 h 0,0 km/h (0 Bft)
19.11.2010 04:00 14,6 C 4,7 C 0,0 UV-I 0,0 C 55 % 95 % 0 % 1011,8 hPa 0,0 l/m 0,4 km/h (0 Bft) 0,00 h 0,03 h 1,2 km/h (1 Bft)
19.11.2010 05:00 14,7 C 5,3 C 0,0 UV-I 0,0 C 55 % 95 % 0 % 1011,9 hPa 0,0 l/m 0,3 km/h (0 Bft) 0,00 h 0,00 h 1,7 km/h (1 Bft)
19.11.2010 06:00 14,7 C 5,9 C 0,0 UV-I 0,0 C 55 % 95 % 0 % 1012,1 hPa 0,0 l/m 1,1 km/h (0 Bft) 0,00 h 0,00 h 2,9 km/h (1 Bft)
19.11.2010 07:00 14,6 C 6,1 C 1,0 UV-I 0,0 C 55 % 95 % 0 % 1012,3 hPa 0,0 l/m 1,8 km/h (1 Bft) 0,00 h 0,00 h 3,8 km/h (1 Bft)
19.11.2010 08:00 14,7 C 6,3 C 6,4 UV-I 0,0 C 55 % 95 % 0 % 1012,6 hPa 0,0 l/m 2,3 km/h (1 Bft) 0,00 h 0,00 h 5,0 km/h (1 Bft)
19.11.2010 09:00 14,8 C 6,7 C 7,7 UV-I 0,0 C 55 % 94 % 1 % 1013,1 hPa 0,0 l/m 2,6 km/h (1 Bft) 0,00 h 0,00 h 4,8 km/h (1 Bft)
19.11.2010 10:00 14,9 C 7,4 C 7,3 UV-I 0,2 C 55 % 94 % 6 % 1013,6 hPa 0,0 l/m 3,8 km/h (1 Bft) 0,00 h 0,00 h 6,9 km/h (2 Bft)
19.11.2010 11:00 15,1 C 8,2 C 3,9 UV-I 0,8 C 55 % 93 % 22 % 1013,8 hPa 0,0 l/m 4,3 km/h (1 Bft) 0,00 h 0,07 h 7,9 km/h (2 Bft)
19.11.2010 12:00 15,2 C 9,0 C 0,5 UV-I 1,1 C 55 % 93 % 30 % 1013,9 hPa 0,0 l/m 1,4 km/h (1 Bft) 0,00 h 0,00 h 2,5 km/h (1 Bft)
19.11.2010 13:00 15,5 C 9,6 C 0,6 UV-I 1,0 C 55 % 92 % 29 % 1013,7 hPa 0,0 l/m 1,9 km/h (1 Bft) 0,00 h 0,00 h 4,2 km/h (1 Bft)
19.11.2010 14:00 15,9 C 10,1 C 0,5 UV-I 1,2 C 54 % 91 % 33 % 1013,8 hPa 0,0 l/m 3,1 km/h (1 Bft) 0,13 h 0,00 h 4,6 km/h (1 Bft)
19.11.2010 15:00 15,9 C 10,0 C 0,0 UV-I 0,2 C 54 % 91 % 4 % 1013,8 hPa 0,0 l/m 1,7 km/h (1 Bft) 0,00 h 0,00 h 3,5 km/h (1 Bft)
19.11.2010 16:00 15,6 C 9,4 C 0,0 UV-I 0,0 C 54 % 92 % 0 % 1013,7 hPa 0,0 l/m 1,0 km/h (0 Bft) 0,00 h 0,00 h 2,0 km/h (1 Bft)
19.11.2010 17:00 15,4 C 8,8 C 0,0 UV-I 0,0 C 56 % 93 % 0 % 1014,0 hPa 0,0 l/m 0,0 km/h (0 Bft) 0,00 h 0,27 h 0,0 km/h (0 Bft)
19.11.2010 18:00 15,2 C 8,4 C 0,0 UV-I 0,0 C 57 % 94 % 0 % 1014,4 hPa 0,0 l/m 0,1 km/h (0 Bft) 0,00 h 0,07 h 0,2 km/h (0 Bft)
19.11.2010 19:00 15,2 C 8,2 C 0,0 UV-I 0,0 C 57 % 94 % 0 % 1014,9 hPa 0,0 l/m 0,2 km/h (0 Bft) 0,00 h 0,00 h 0,1 km/h (0 Bft)
19.11.2010 20:00 15,2 C 7,6 C 0,0 UV-I 0,0 C 57 % 95 % 0 % 1015,1 hPa 0,0 l/m 0,3 km/h (0 Bft) 0,00 h 0,03 h 0,3 km/h (0 Bft)
19.11.2010 21:00 15,2 C 7,5 C 0,0 UV-I 0,0 C 58 % 95 % 0 % 1015,4 hPa 0,0 l/m 0,0 km/h (0 Bft) 0,00 h 0,00 h 0,0 km/h (0 Bft)
19.11.2010 22:00 15,2 C 7,5 C 0,0 UV-I 0,0 C 57 % 95 % 0 % 1015,3 hPa 0,0 l/m 0,2 km/h (0 Bft) 0,00 h 0,00 h 0,8 km/h (0 Bft)
19.11.2010 23:00 15,2 C 7,3 C 0,0 UV-I 0,0 C 57 % 95 % 0 % 1015,2 hPa 0,0 l/m 0,1 km/h (0 Bft) 0,00 h 0,00 h 0,4 km/h (0 Bft)
20.11.2010 00:00 15,2 C 7,4 C 0,0 UV-I 0,0 C 57 % 95 % 0 % 1015,3 hPa 0,0 l/m 0,5 km/h (0 Bft) 0,00 h 0,00 h 2,2 km/h (1 Bft)
20.11.2010 01:00 15,1 C 7,5 C 0,0 UV-I 0,0 C 56 % 93 % 0 % 1015,3 hPa 0,0 l/m 0,5 km/h (0 Bft) 0,00 h 0,00 h 1,0 km/h (0 Bft)
20.11.2010 02:00 15,1 C 7,5 C 0,0 UV-I 0,0 C 55 % 93 % 0 % 1015,1 hPa 0,0 l/m 1,1 km/h (1 Bft) 0,00 h 0,00 h 3,1 km/h (1 Bft)
20.11.2010 03:00 15,1 C 6,8 C 0,0 UV-I 0,0 C 55 % 93 % 0 % 1015,2 hPa 0,0 l/m 0,4 km/h (0 Bft) 0,00 h 0,00 h 1,1 km/h (1 Bft)
20.11.2010 04:00 15,1 C 6,2 C 0,0 UV-I 0,0 C 55 % 94 % 0 % 1015,0 hPa 0,0 l/m 1,0 km/h (0 Bft) 0,00 h 0,00 h 2,0 km/h (1 Bft)
20.11.2010 05:00 15,0 C 5,8 C 0,0 UV-I 0,0 C 55 % 94 % 0 % 1014,8 hPa 0,0 l/m 1,1 km/h (0 Bft) 0,00 h 0,00 h 2,9 km/h (1 Bft)
20.11.2010 06:00 15,0 C 5,7 C 0,0 UV-I 0,0 C 54 % 94 % 0 % 1014,9 hPa 0,0 l/m 0,7 km/h (0 Bft) 0,00 h 0,00 h 1,3 km/h (1 Bft)
20.11.2010 07:00 14,9 C 5,8 C 0,7 UV-I 0,0 C 54 % 94 % 0 % 1015,0 hPa 0,0 l/m 1,1 km/h (0 Bft) 0,00 h 0,00 h 2,8 km/h (1 Bft)
20.11.2010 08:00 14,8 C 5,9 C 6,0 UV-I 0,0 C 55 % 95 % 0 % 1015,2 hPa 0,0 l/m 0,9 km/h (0 Bft) 0,00 h 0,00 h 2,2 km/h (1 Bft)
20.11.2010 09:00 14,9 C 6,1 C 7,4 UV-I 0,0 C 55 % 94 % 0 % 1015,1 hPa 0,0 l/m 3,1 km/h (1 Bft) 0,00 h 0,00 h 5,4 km/h (1 Bft)
20.11.2010 10:00 15,1 C 6,4 C 7,8 UV-I 0,3 C 55 % 94 % 7 % 1015,0 hPa 0,0 l/m 3,5 km/h (1 Bft) 0,00 h 0,00 h 6,5 km/h (2 Bft)
20.11.2010 11:00 15,2 C 6,9 C 3,5 UV-I 0,8 C 55 % 94 % 22 % 1015,1 hPa 0,0 l/m 2,5 km/h (1 Bft) 0,00 h 0,00 h 3,7 km/h (1 Bft)
20.11.2010 12:00 15,5 C 8,5 C 1,3 UV-I 3,7 C 54 % 92 % 78 % 1014,5 hPa 0,0 l/m 3,7 km/h (1 Bft) 0,60 h 0,00 h 5,8 km/h (1 Bft)
20.11.2010 13:00 16,1 C 10,5 C 0,9 UV-I 5,1 C 53 % 87 % 100 % 1014,2 hPa 0,0 l/m 5,7 km/h (1 Bft) 1,00 h 0,00 h 8,0 km/h (2 Bft)
20.11.2010 14:00 17,6 C 10,7 C 0,8 UV-I 3,4 C 50 % 87 % 90 % 1014,5 hPa 0,0 l/m 6,2 km/h (2 Bft) 1,00 h 0,00 h 8,6 km/h (2 Bft)
20.11.2010 15:00 17,8 C 9,6 C 0,4 UV-I 0,9 C 49 % 88 % 26 % 1013,8 hPa 0,0 l/m 4,0 km/h (1 Bft) 0,30 h 0,00 h 6,9 km/h (2 Bft)
20.11.2010 16:00 16,9 C 8,3 C 0,0 UV-I 0,0 C 51 % 91 % 0 % 1013,0 hPa 0,0 l/m 0,2 km/h (0 Bft) 0,00 h 0,00 h 0,4 km/h (0 Bft)
20.11.2010 17:00 16,0 C 6,5 C 0,0 UV-I 0,0 C 52 % 92 % 0 % 1012,8 hPa 0,0 l/m 0,0 km/h (0 Bft) 0,00 h 0,10 h 0,0 km/h (0 Bft)
20.11.2010 18:00 15,5 C 4,9 C 0,0 UV-I 0,0 C 53 % 94 % 0 % 1012,4 hPa 0,0 l/m 0,0 km/h (0 Bft) 0,00 h 0,00 h 0,0 km/h (0 Bft)
20.11.2010 19:00 15,3 C 4,1 C 0,0 UV-I 0,0 C 53 % 94 % 0 % 1012,2 hPa 0,0 l/m 0,0 km/h (0 Bft) 0,00 h 0,07 h 0,0 km/h (0 Bft)
20.11.2010 20:00 15,1 C 3,5 C 0,0 UV-I 0,0 C 53 % 95 % 0 % 1012,1 hPa 0,0 l/m 0,0 km/h (0 Bft) 0,00 h 0,07 h 0,0 km/h (0 Bft)
20.11.2010 21:00 15,0 C 4,1 C 0,0 UV-I 0,0 C 53 % 96 % 0 % 1011,9 hPa 0,0 l/m 0,0 km/h (0 Bft) 0,00 h 0,03 h 0,0 km/h (0 Bft)
20.11.2010 22:00 15,0 C 4,6 C 0,0 UV-I 0,0 C 53 % 95 % 0 % 1011,4 hPa 0,0 l/m 0,4 km/h (0 Bft) 0,00 h 0,07 h 2,0 km/h (1 Bft)
20.11.2010 23:00 14,9 C 4,2 C 0,0 UV-I 0,0 C 54 % 95 % 0 % 1011,1 hPa 0,0 l/m 0,0 km/h (0 Bft) 0,00 h 0,03 h 0,1 km/h (0 Bft)
21.11.2010 00:00 14,8 C 2,6 C 0,0 UV-I 0,0 C 53 % 95 % 0 % 1011,0 hPa 0,0 l/m 0,0 km/h (0 Bft) 0,00 h 0,03 h 0,0 km/h (0 Bft)
21.11.2010 01:00 14,7 C 1,5 C 0,0 UV-I 0,0 C 52 % 95 % 0 % 1010,6 hPa 0,0 l/m 0,0 km/h (0 Bft) 0,00 h 0,07 h 0,0 km/h (0 Bft)
21.11.2010 02:00 14,5 C 0,9 C 0,0 UV-I 0,0 C 52 % 95 % 0 % 1010,2 hPa 0,0 l/m 0,0 km/h (0 Bft) 0,00 h 0,00 h 0,0 km/h (0 Bft)
21.11.2010 03:00 14,4 C 0,9 C 0,0 UV-I 0,0 C 52 % 95 % 0 % 1009,7 hPa 0,0 l/m 0,0 km/h (0 Bft) 0,00 h 0,00 h 0,0 km/h (0 Bft)
21.11.2010 04:00 14,4 C 1,5 C 0,0 UV-I 0,0 C 52 % 96 % 0 % 1008,9 hPa 0,1 l/m 0,0 km/h (0 Bft) 0,00 h 0,10 h 0,0 km/h (0 Bft)
21.11.2010 05:00 14,4 C 1,7 C 0,0 UV-I 0,0 C 52 % 96 % 0 % 1008,8 hPa 0,0 l/m 0,0 km/h (0 Bft) 0,00 h 0,10 h 0,0 km/h (0 Bft)
21.11.2010 06:00 14,3 C 0,8 C 0,0 UV-I 0,0 C 51 % 95 % 0 % 1008,5 hPa 0,0 l/m 0,0 km/h (0 Bft) 0,00 h 0,00 h 0,0 km/h (0 Bft)
21.11.2010 07:00 14,2 C -0,0 C 0,0 UV-I 0,0 C 51 % 96 % 0 % 1008,3 hPa 0,0 l/m 0,1 km/h (0 Bft) 0,00 h 0,17 h 0,5 km/h (0 Bft)
21.11.2010 08:00 14,0 C -0,1 C 0,0 UV-I 0,0 C 51 % 96 % 0 % 1008,4 hPa 0,0 l/m 0,0 km/h (0 Bft) 0,00 h 0,00 h 0,0 km/h (0 Bft)
21.11.2010 09:00 13,9 C -0,1 C 0,8 UV-I 0,4 C 50 % 96 % 12 % 1008,5 hPa 0,0 l/m 0,0 km/h (0 Bft) 0,00 h 0,00 h 0,0 km/h (0 Bft)
21.11.2010 10:00 14,1 C 1,0 C 3,5 UV-I 2,6 C 50 % 96 % 66 % 1008,4 hPa 0,0 l/m 0,0 km/h (0 Bft) 0,70 h 0,00 h 0,3 km/h (0 Bft)
21.11.2010 11:00 14,5 C 4,1 C 9,4 UV-I 6,2 C 51 % 96 % 100 % 1008,4 hPa 0,0 l/m 0,9 km/h (0 Bft) 1,00 h 0,00 h 2,5 km/h (1 Bft)
21.11.2010 12:00 14,9 C 7,0 C 2,6 UV-I 5,2 C 51 % 93 % 100 % 1008,1 hPa 0,0 l/m 2,7 km/h (1 Bft) 1,00 h 0,00 h 5,5 km/h (1 Bft)
21.11.2010 13:00 15,3 C 8,1 C 0,6 UV-I 3,7 C 51 % 90 % 92 % 1008,1 hPa 0,0 l/m 4,3 km/h (1 Bft) 0,83 h 0,00 h 5,4 km/h (1 Bft)
21.11.2010 14:00 16,3 C 8,3 C 0,6 UV-I 3,4 C 48 % 91 % 93 % 1008,3 hPa 0,0 l/m 2,0 km/h (1 Bft) 1,00 h 0,00 h 2,8 km/h (1 Bft)
21.11.2010 15:00 16,6 C 7,9 C 0,2 UV-I 1,0 C 48 % 90 % 28 % 1007,8 hPa 0,0 l/m 2,7 km/h (1 Bft) 0,33 h 0,00 h 3,7 km/h (1 Bft)
21.11.2010 16:00 15,9 C 6,9 C 0,0 UV-I 0,0 C 49 % 90 % 0 % 1007,0 hPa 0,0 l/m 2,3 km/h (1 Bft) 0,00 h 0,00 h 3,1 km/h (1 Bft)
21.11.2010 17:00 15,2 C 6,4 C 0,0 UV-I 0,0 C 50 % 89 % 0 % 1006,4 hPa 0,0 l/m 3,9 km/h (1 Bft) 0,00 h 0,00 h 4,5 km/h (1 Bft)
21.11.2010 18:00 14,9 C 6,1 C 0,0 UV-I 0,0 C 51 % 90 % 0 % 1006,3 hPa 0,0 l/m 3,3 km/h (1 Bft) 0,00 h 0,00 h 4,0 km/h (1 Bft)
21.11.2010 19:00 14,8 C 5,7 C 0,0 UV-I 0,0 C 51 % 90 % 0 % 1006,4 hPa 0,0 l/m 3,8 km/h (1 Bft) 0,00 h 0,00 h 4,8 km/h (1 Bft)
21.11.2010 20:00 14,7 C 5,5 C 0,0 UV-I 0,0 C 51 % 91 % 0 % 1006,4 hPa 0,0 l/m 4,4 km/h (1 Bft) 0,00 h 0,00 h 5,4 km/h (1 Bft)
21.11.2010 21:00 14,7 C 5,2 C 0,0 UV-I 0,0 C 51 % 92 % 0 % 1006,5 hPa 0,0 l/m 1,5 km/h (1 Bft) 0,00 h 0,00 h 2,0 km/h (1 Bft)
21.11.2010 22:00 14,6 C 5,0 C 0,0 UV-I 0,0 C 51 % 92 % 0 % 1006,8 hPa 0,0 l/m 2,6 km/h (1 Bft) 0,00 h 0,00 h 3,9 km/h (1 Bft)
21.11.2010 23:00 14,7 C 4,9 C 0,0 UV-I 0,0 C 51 % 92 % 0 % 1006,4 hPa 0,0 l/m 4,2 km/h (1 Bft) 0,00 h 0,00 h 4,9 km/h (1 Bft)
Min-Datum _ 21.11.10 21.11.10 15.11.10 15.11.10 21.11.10 15.11.10 15.11.10 15.11.10 - 15.11.10 - - 15.11.10
_ Min-Zeit 08:42 08:18 00:00 00:00 15:12 00:10 00:00 00:00 - 04:30 - - 00:50
Minimum _ 13,9 C -0,3 C 0,0 UV-I 0,0 C 47 % 72 % 0 % 1004,2 hPa - 0,0 km/h (0 Bft) - - 0,0 km/h (0 Bft)
Max-Datum _ 20.11.10 15.11.10 21.11.10 18.11.10 15.11.10 17.11.10 18.11.10 16.11.10 18.11.10 15.11.10 15.11.10 16.11.10 15.11.10
_ Max-Zeit 14:46 00:00 11:36 12:36 01:46 05:46 11:04 11:06 02:20 00:02 13:04 01:22 00:36
Maximum _ 18,0 C 11,1 C 10,6 UV-I 7,4 C 59 % 97 % 100 % 1022,7 hPa 0,2 l/m 12,0 km/h
S (2 Bft)
0,03 h 0,03 h 23,2 km/h
S (4 Bft)
Durchschnitt _ 15,2 C 5,6 C 0,6 UV-I 0,4 C 55 % 92 % 10 % 1012,9 hPa #1,0 l/m 1,2 km/h (1 Bft) #9:44 h #7:38 h 1,9 km/h (1 Bft)
© 2012 W. Hausmann